This demonstration page uses our WeatherBlox Daily Observations layout. Learn more.

Left ArrowRight Arrow

30.21309, -93.2044

Hourly Observations for November 1, 2015

Temp ( °F °C ) Dew Point ( °F °C ) Humidity (%) Winds ( mph kmh ) Pressure ( in mb ) Visibility ( mi km ) Precip ( " mm )
11:50 am 11:50 Cloudy 68 20 66 19 94 94 NE 6 9 29.91 1013 10 16 0.00 0.00
12:50 pm 12:50 Mostly Cloudy 72 22 64 18 78 78 NE 8 13 29.88 1012 10 16 0.00 0.00
1:50 pm 13:50 Cloudy 72 22 64 18 78 78 NE 5 7 29.88 1012 10 16 0.00 0.00
2:50 pm 14:50 Cloudy 70 21 66 19 88 88 N 3 6 29.88 1012 10 16 0.00 0.00
3:50 pm 15:50 Cloudy with Mist and Fog 68 20 66 19 94 94 Calm 29.88 1012 3 5 0.00 0.00
4:50 pm 16:50 Mostly Cloudy with Mist and Fog 66 19 66 19 100 100 Calm 29.88 1012 5 8 0.00 0.00
5:55 pm 17:55 Cloudy 66 19 66 19 100 100 Calm 29.88 1012 10 16 0.00 0.00
6:50 pm 18:50 Cloudy 66 19 66 19 100 100 N 3 6 29.91 1013 10 16 0.00 0.00
7:50 pm 19:50 Cloudy 66 19 66 19 100 100 N 3 6 29.91 1013 10 16 0.00 0.00
8:55 pm 20:55 Cloudy 66 19 66 19 100 100 Calm 29.91 1013 10 16 0.00 0.00
9:15 pm 21:15 Cloudy 67 19.4 66 18.8 96 96 Calm 29.91 1013 10 16 0.00 0.00
9:35 pm 21:35 Cloudy 67 19.5 66 19 97 97 Calm 29.91 1013 10 16 0.00 0.00
9:50 pm 21:50 Cloudy with Light Rain 66 19 66 19 100 100 NNW 3 6 29.91 1013 10 16 0.00 0.00
9:55 pm 21:55 Cloudy with Light Rain 67 19.5 66 19 97 97 NNW 5 7 29.91 1013 10 16 0.00 0.00
10:15 pm 22:15 Cloudy 67 19.5 66 19 97 97 NW 6 9 29.91 1013 10 16 0.00 0.00
10:35 pm 22:35 Cloudy with Light Rain 67 19.5 66 19 97 97 WNW 6 9 29.91 1013 10 16 0.00 0.00
10:55 pm 22:55 Cloudy with Drizzle 67 19.4 66 19 98 98 WNW 7 11 29.91 1013 10 16 0.00 0.00
11:15 pm 23:15 Cloudy with Rain 67 19.3 66 18.9 98 98 NW 9 15 29.91 1013 7 11 0.01 0.25
11:35 pm 23:35 Cloudy with Rain 66 18.9 64 18 95 95 NNW 13 20 29.91 1013 7 11 0.04 1.02
11:55 pm 23:55 Cloudy with Light Rain 65 18.5 63 17.4 93 93 NNW 8 13 29.88 1012 10 16 0.04 1.02

Powered by AerisWeather